Weather History for Homerville, GA

Change the Weather History Date:

Saturday, August 9, 2014

  Actual Average Record
Temperature  
Mean Temperature 86 °F -  
Max Temperature 95 °F 91 °F 99 °F (1987)
Min Temperature 77 °F 69 °F 62 °F (1989)
Cooling Degree Days 21    
Growing Degree Days 36 (Base 50)    
Moisture  
Dew Point 75 °F    
Average Humidity 78    
Maximum Humidity 100    
Minimum Humidity 49    
Precipitation  
Precipitation 0.00 in - - ()
Sea Level Pressure  
Sea Level Pressure 30.02 in    
Wind  
Wind Speed 3 mph (SW)    
Max Wind Speed 12 mph    
Max Gust Speed 17 mph    
Visibility 10 miles    
Events Rain , Thunderstorm    
Averages and records for this station are not official NWS values.
T = Trace of Precipitation, MM = Missing Value Source: NWS Daily Summary

Daily Weather History Graph

Daily Weather History Graph

Search for Another Location

Airport:

Trip Planner

Search our weather history database for the weather conditions in past years. The results will help you decide how hot, cold, wet, or windy it might be!

Date:

Astronomy

Aug. 09, 2014 Rise Set
Actual Time 6:53 AM EDT 8:19 PM EDT
Civil Twilight 6:27 AM EDT 8:45 PM EDT
Nautical Twilight 5:56 AM EDT 9:15 PM EDT
Astronomical Twilight 5:24 AM EDT 9:48 PM EDT
Moon 7:21 PM EDT (8/9) 5:32 AM EDT (8/9)
Length of Visible Light 14h 17m
Length of Day
13h 26m
Waxing Gibbous, 98% of the Moon is Illuminated
Aug 9
Waxing Gibbous
Aug 10
Full
Aug 17
Last Quarter
Aug 25
New
Sep 2
First Quarter

Hourly Weather History & Observations

Time (EDT) Temp. Heat Index Dew Point Humidity Pressure Visibility Wind Dir Wind Speed Gust Speed Precip Events Conditions
12:15 AM 80.6 °F 87.1 °F 77.0 °F 89% 30.05 in 10.0 mi ESE 3.5 mph - N/A Thunderstorm Scattered Clouds
12:35 AM 80.6 °F 87.1 °F 77.0 °F 89% 30.05 in 10.0 mi ESE 3.5 mph - N/A Thunderstorm Mostly Cloudy
12:55 AM 80.6 °F 87.1 °F 77.0 °F 89% 30.05 in 10.0 mi Calm Calm - N/A Thunderstorm Thunderstorm
1:35 AM 78.8 °F - 75.2 °F 89% 30.04 in 10.0 mi Calm Calm - N/A   Mostly Cloudy
1:55 AM 78.8 °F - 75.2 °F 89% 30.02 in 10.0 mi SSE 4.6 mph - N/A   Clear
2:15 AM 78.8 °F - 75.2 °F 89% 30.02 in 10.0 mi Calm Calm - N/A   Clear
2:35 AM 78.8 °F - 75.2 °F 89% 30.01 in 10.0 mi Calm Calm - N/A   Clear
2:55 AM 78.8 °F - 75.2 °F 89% 30.00 in 10.0 mi Calm Calm - N/A   Clear
3:15 AM 78.8 °F - 77.0 °F 94% 30.00 in 10.0 mi SSE 4.6 mph - N/A   Clear
3:35 AM 78.8 °F - 75.2 °F 89% 29.99 in 10.0 mi Calm Calm - N/A   Clear
3:55 AM 77.0 °F - 77.0 °F 100% 29.99 in 10.0 mi SSE 4.6 mph - N/A   Clear
4:15 AM 77.0 °F - 77.0 °F 100% 30.00 in 10.0 mi SE 3.5 mph - N/A   Scattered Clouds
4:35 AM 77.0 °F - 75.2 °F 94% 30.00 in 10.0 mi Calm Calm - N/A   Scattered Clouds
4:55 AM 77.0 °F - 75.2 °F 94% 30.00 in 10.0 mi Calm Calm - N/A   Clear
5:15 AM 77.0 °F - 75.2 °F 94% 30.00 in 10.0 mi SSE 3.5 mph - N/A   Clear
5:35 AM 77.0 °F - 75.2 °F 94% 30.01 in 10.0 mi Calm Calm - N/A   Clear
5:55 AM 77.0 °F - 75.2 °F 94% 30.02 in 10.0 mi Calm Calm - N/A   Clear
6:15 AM 77.0 °F - 75.2 °F 94% 30.03 in 7.0 mi Calm Calm - N/A   Scattered Clouds
6:35 AM 77.0 °F - 75.2 °F 94% 30.04 in 10.0 mi Calm Calm - N/A   Mostly Cloudy
6:55 AM 77.0 °F - 77.0 °F 100% 30.05 in 7.0 mi Calm Calm - N/A   Overcast
7:15 AM 77.0 °F - 77.0 °F 100% 30.05 in 7.0 mi Calm Calm - N/A   Mostly Cloudy
7:35 AM 77.0 °F - 77.0 °F 100% 30.05 in 7.0 mi SSW 3.5 mph - N/A   Scattered Clouds
7:55 AM 78.8 °F - 77.0 °F 94% 30.05 in 10.0 mi South 4.6 mph - N/A   Clear
8:15 AM 78.8 °F - 77.0 °F 94% 30.05 in 10.0 mi SW 3.5 mph - N/A   Clear
8:35 AM 80.6 °F 87.1 °F 77.0 °F 89% 30.05 in 10.0 mi SW 3.5 mph - N/A   Clear
8:55 AM 82.4 °F 90.9 °F 77.0 °F 84% 30.06 in 10.0 mi WSW 4.6 mph - N/A   Clear
9:15 AM 82.4 °F 90.9 °F 77.0 °F 84% 30.06 in 10.0 mi SW 4.6 mph - N/A   Clear
9:35 AM 84.2 °F 94.1 °F 77.0 °F 79% 30.05 in 10.0 mi WSW 4.6 mph - N/A   Clear
9:55 AM 86.0 °F 96.9 °F 77.0 °F 74% 30.05 in 10.0 mi West 3.5 mph - N/A   Clear
10:15 AM 87.8 °F 99.7 °F 77.0 °F 70% 30.05 in 10.0 mi Calm Calm - N/A   Clear
10:35 AM 87.8 °F 99.7 °F 77.0 °F 70% 30.06 in 10.0 mi West 3.5 mph - N/A   Clear
10:55 AM 89.6 °F 102.2 °F 77.0 °F 66% 30.06 in 10.0 mi NW 3.5 mph - N/A   Scattered Clouds
11:15 AM 89.6 °F 99.8 °F 75.2 °F 62% 30.06 in 10.0 mi Calm Calm - N/A   Scattered Clouds
11:35 AM 89.6 °F 99.8 °F 75.2 °F 62% 30.06 in 10.0 mi Calm Calm - N/A   Scattered Clouds
11:55 AM 89.6 °F 99.8 °F 75.2 °F 62% 30.06 in 10.0 mi NW 4.6 mph - N/A   Mostly Cloudy
12:15 PM 91.4 °F 102.5 °F 75.2 °F 59% 30.05 in 10.0 mi NNW 4.6 mph - N/A   Mostly Cloudy
12:35 PM 89.6 °F 99.8 °F 75.2 °F 62% 30.05 in 10.0 mi NW 4.6 mph - N/A   Mostly Cloudy
12:55 PM 93.2 °F 105.0 °F 75.2 °F 56% 30.04 in 10.0 mi Calm Calm - N/A   Scattered Clouds
1:15 PM 93.2 °F 102.4 °F 73.4 °F 52% 30.04 in 10.0 mi WSW 5.8 mph - N/A   Scattered Clouds
1:35 PM 95.0 °F 107.4 °F 75.2 °F 53% 30.03 in 10.0 mi Calm Calm - N/A   Scattered Clouds
1:55 PM 91.4 °F 105.1 °F 77.0 °F 63% 30.03 in 10.0 mi SSW 11.5 mph 17.3 mph N/A   Mostly Cloudy
2:15 PM 91.4 °F 105.1 °F 77.0 °F 63% 30.02 in 10.0 mi South 9.2 mph - N/A   Overcast
2:35 PM 93.2 °F 107.2 °F 77.0 °F 59% 30.01 in 10.0 mi SSW 8.1 mph - N/A   Scattered Clouds
2:55 PM 95.0 °F 104.5 °F 73.4 °F 49% 30.01 in 10.0 mi South 9.2 mph - N/A   Clear
3:15 PM 95.0 °F 104.5 °F 73.4 °F 49% 29.99 in 10.0 mi SSW 6.9 mph 17.3 mph N/A   Clear
3:35 PM 95.0 °F 107.4 °F 75.2 °F 53% 29.98 in 10.0 mi WSW 11.5 mph 16.1 mph N/A Thunderstorm Clear
3:55 PM 95.0 °F 104.5 °F 73.4 °F 49% 29.97 in 10.0 mi SSW 6.9 mph - N/A Thunderstorm Clear
4:15 PM 95.0 °F 104.5 °F 73.4 °F 49% 29.97 in 10.0 mi WSW 6.9 mph - N/A Thunderstorm Thunderstorm
4:35 PM 93.2 °F 100.5 °F 71.6 °F 49% 29.97 in 10.0 mi NW 3.5 mph - N/A   Clear
4:55 PM 87.8 °F 97.6 °F 75.2 °F 66% 29.98 in 10.0 mi ENE 3.5 mph - N/A   Clear
5:15 PM 86.0 °F 93.4 °F 73.4 °F 66% 29.98 in 10.0 mi ENE 3.5 mph - N/A   Clear
5:35 PM 86.0 °F 93.4 °F 73.4 °F 66% 29.97 in 10.0 mi NE 3.5 mph - N/A   Clear
5:55 PM 86.0 °F 93.4 °F 73.4 °F 66% 29.99 in 10.0 mi Calm Calm - N/A Thunderstorm Clear
6:15 PM 84.2 °F 90.9 °F 73.4 °F 70% 29.99 in 10.0 mi Calm Calm - N/A Thunderstorm Scattered Clouds
6:35 PM 82.4 °F 88.2 °F 73.4 °F 74% 30.01 in 10.0 mi Calm Calm - N/A   Mostly Cloudy
6:55 PM 84.2 °F 92.3 °F 75.2 °F 74% 30.00 in 10.0 mi Calm Calm - N/A Thunderstorm Scattered Clouds
7:15 PM 84.2 °F 90.9 °F 73.4 °F 70% 30.01 in 10.0 mi SSW 3.5 mph - N/A Thunderstorm Clear
7:35 PM 82.4 °F 88.2 °F 73.4 °F 74% 30.02 in 10.0 mi South 4.6 mph - N/A   Scattered Clouds
7:55 PM 82.4 °F 89.5 °F 75.2 °F 79% 30.03 in 10.0 mi South 5.8 mph - N/A Thunderstorm Scattered Clouds
8:15 PM 80.6 °F 85.4 °F 73.4 °F 79% 30.02 in 10.0 mi SW 8.1 mph - N/A Rain Light Rain
8:35 PM 78.8 °F - 73.4 °F 83% 30.02 in 10.0 mi WSW 3.5 mph - N/A Rain Light Rain
8:55 PM 77.0 °F - 73.4 °F 89% 30.02 in 10.0 mi Calm Calm - N/A   Light Drizzle
9:15 PM 77.0 °F - 73.4 °F 89% 30.02 in 10.0 mi Calm Calm - N/A   Clear
9:35 PM 77.0 °F - 73.4 °F 89% 30.02 in 10.0 mi Calm Calm - N/A   Clear
9:55 PM 77.0 °F - 73.4 °F 89% 30.03 in 10.0 mi Calm Calm - N/A   Clear
10:15 PM 77.0 °F - 73.4 °F 89% 30.04 in 10.0 mi WNW 4.6 mph - N/A   Clear
10:35 PM 77.0 °F - 73.4 °F 89% 30.04 in 10.0 mi Calm Calm - N/A   Clear
10:55 PM 77.0 °F - 73.4 °F 89% 30.04 in 10.0 mi WSW 3.5 mph - N/A   Clear
11:15 PM 77.0 °F - 73.4 °F 89% 30.04 in 10.0 mi Calm Calm - N/A   Clear